Powrót do katalogu

STARLINK-3193

AktywnyŁącznośćVLEO
NORAD 49754·PAYLOAD·🇺🇸 United States

Wystrzelony Dec 2, 2021 z Cape Canaveral Space Force Station

Loading…

Następne Przeloty (najbliższe 24 godziny)

TLE

ŚwieżeSource: CelesTrak SupGP

Epoka: Sep 14, 2026, 20:45 UTC

1 49754C 21115AG  26257.86506944 -.00042848  00000+0 -12259-2 0  2578
2 49754  53.1593 356.3936 0001019  83.8529 114.8219 15.35420306    14

Śledź STARLINK-3193 w czasie rzeczywistym z AllMySat

Download on the App Store